Simultaneous Nadir Overpasses (SNOs) Predictions

Prediction of SNOs between GOES-16 and METOP-C Satellite Orbit:

Table of predicted SNOs for the next 14.0 days since TLE Epoch: 1/10/2020
Index Date Time (GOES-16) GOES-16 Lat,Lon METOP-C Lat,Lon Distance(km) Time Diff (sec)
1 01/11/2020 14:26:57 0.02, -75.23 -0.29, -73.71 171.94 80
2 01/13/2020 02:43:01 -0.02, -75.22 -0.68, -78.25 344.31 80
3 01/14/2020 02:24:50 -0.03, -75.23 0.42, -73.20 231.59 80
4 01/15/2020 14:40:43 0.03, -75.27 0.55, -77.69 275.28 80
5 01/16/2020 14:22:32 0.04, -75.28 -0.55, -72.64 301.05 80
6 01/18/2020 02:38:36 -0.03, -75.28 -0.42, -77.17 214.05 80
7 01/19/2020 02:20:24 -0.03, -75.30 0.68, -72.12 362.52 80
8 01/20/2020 14:36:18 0.03, -75.34 0.30, -76.61 143.61 80
9 01/21/2020 14:18:06 0.03, -75.36 -0.80, -71.56 433.27 80
10 01/23/2020 02:34:09 -0.03, -75.38 -0.22, -76.08 80.84 80
11 01/24/2020 02:15:59 -0.04, -75.40 0.94, -71.04 496.49 80




NCC Satellite Simultaneous Nadir Overpasses (SNOs) Prediction Service
